Location: Bowen Observatory
(35.3292°N, 120.7429°W)
Time: 05:37:12
(UTC-08:00)

N. Korean satellite - Visible Passes

Search period start: 25 February 2020 00:00
Search period end: 06 March 2020 00:00
Orbit: 456 x 505 km, 97.2° (Epoch: 24 February)

Date Brightness Start Highest point End Pass type
(mag) Time Alt. Az. Time Alt. Az. Time Alt. Az.
25 Feb 9.8 04:55:37 10° NE 04:58:04 17° E 05:00:28 10° SE visible
26 Feb 6.7 06:02:20 10° N 06:05:58 53° WNW 06:09:31 10° SSW visible
27 Feb 7.1 05:36:47 10° NNE 05:40:27 63° E 05:44:03 10° S visible
28 Feb 8.9 05:11:40 10° NE 05:14:52 27° E 05:17:59 10° SSE visible
29 Feb 10.0 04:47:27 10° ENE 04:49:09 13° E 04:50:50 10° ESE visible
01 Mar 6.5 05:53:28 10° N 05:57:08 72° WNW 06:00:44 10° SSW visible
02 Mar 7.8 05:28:02 10° NNE 05:31:36 46° E 05:35:04 10° S visible
03 Mar 9.4 05:03:07 10° NE 05:05:57 21° E 05:08:43 10° SE visible
05 Mar 6.6 05:44:36 10° NNE 05:48:16 84° ESE 05:51:51 10° S visible
